KUIPER-00051

Last updated on Thu Jul 03 2025 00:02:08 GMT+0000 (Coordinated Universal Time)

1 64511U 25134M 25183.58335648 .00002697 00000+0 88655-4 0 9992 2 64511 51.8738 286.9593 0006120 135.2220 324.6542 15.35238068 2578
UTC large
Height (km)
Speed (km/s)
/
Latitude / Longitude
Inclination (degrees)
Orbital Period (minutes)
Azimuth
Elevation
Range (km)
Doppler Factor

Next 0 passes for location: London (51.5072 / 0.1276)

Sorry there are no passes over London.